カタログに戻る

YAOGAN 31 ADAPTER

運用中LEO
NORAD 47855·DEBRIS·🇨🇳 China
この衛星名は、まだ公式ソースで確認されていません。

打ち上げ Mar 13, 2021 から Jiuquan Satellite Launch Center

Loading…

次のパス (今後24時間)

TLE

最新Source: Space-Track

元期: Sep 14, 2026, 16:18 UTC

1 47855U 21020B   26257.67958190 -.00000302  00000-0 -33167-3 0  9991
2 47855  63.4086  40.2990 0178068   1.4127 358.7366 13.44258730270214

AllMySatでYAOGAN 31 ADAPTERをリアルタイム追跡

Download on the App Store